{"data":{"norad_id":63460,"epoch":"2026-09-20T06:47:05.192736Z","epoch_age_seconds":174507,"freshness":"STALE","line1":"1 63460U 25070A   26263.28269899  .00010509  00000+0  39079-3 0  9990","line2":"2 63460  42.9993 241.1598 0001416 267.6540  92.4150 15.27587786 82736","mean_motion":15.27587786,"eccentricity":0.0001416,"inclination_deg":42.9993,"raan_deg":241.1598,"arg_perigee_deg":267.654,"mean_anomaly_deg":92.415,"bstar":0.00039079,"rev_number":8273,"period_min":94.266268243127,"perigee_km":482.05424140374,"apogee_km":483.99732270362,"semimajor_km":6861.1627820537,"source":"CELESTRAK","updated_at":"2026-09-21T09:00:35.007009Z"}}